Kenosha, WI

12:37 PM CST on November 23, 2017 (GMT -0600)
Kenosha Regional

Weather History for KENW - December, 2012

Change the Weather History Date:

Saturday, December 8, 2012

  Actual Average Record
Temperature  
Mean Temperature 35 °F -  
Max Temperature 37 °F 36 °F 59 °F (1966)
Min Temperature 33 °F 22 °F -5 °F (1958)
Degree Days  
Heating Degree Days 30    
Moisture  
Dew Point 32 °F    
Average Humidity 87    
Maximum Humidity 93    
Minimum Humidity 73    
Precipitation  
Precipitation 0.16 in - - ()
Sea Level Pressure  
Sea Level Pressure 30.00 in    
Wind  
Wind Speed 8 mph (NNE)    
Max Wind Speed 15 mph    
Max Gust Speed -    
Visibility 6 miles    
Events Rain , Snow    
Averages and records for this station are not official NWS values.
T = Trace of Precipitation, MM = Missing Value Source: NWS Daily Summary

Daily Weather History Graph

Daily Weather History Graph

Search for Another Location

Airport or City:

Trip Planner

Search our weather history database for the weather conditions in past years. The results will help you decide how hot, cold, wet, or windy it might be!

Date:

Astronomy

Dec. 08, 2012 Rise Set
Actual Time 7:09 AM CST 4:18 PM CST
Civil Twilight 6:37 AM CST 4:50 PM CST
Nautical Twilight 6:02 AM CST 5:25 PM CST
Astronomical Twilight 5:27 AM CST 5:59 PM CST
Moon 1:28 AM CST (12/8) 12:53 PM CST (12/8)
Length of Visible Light 10h 12m
Length of Day
9h 08m
Waning Crescent, 28% of the Moon is Illuminated
Dec 8
Waning Crescent
Dec 13
New
Dec 19
First Quarter
Dec 28
Full
Jan 4
Last Quarter

Hourly Weather History & Observations

Time (CST) Temp. Windchill Dew Point Humidity Pressure Visibility Wind Dir Wind Speed Gust Speed Precip Events Conditions
12:38 AM 37.4 °F 32.1 °F 32.0 °F 81% 29.90 in 6.0 mi NNW 6.9 mph - 0.01 in Rain Light Rain
12:53 AM 37.0 °F 30.4 °F 32.0 °F 82% 29.92 in 6.0 mi NNW 9.2 mph - 0.02 in Rain Light Rain
1:08 AM 35.6 °F 29.9 °F 32.0 °F 87% 29.90 in 5.0 mi North 6.9 mph - 0.00 in Rain Light Rain
1:15 AM 35.6 °F 28.6 °F 32.0 °F 87% 29.89 in 5.0 mi North 9.2 mph - 0.01 in Rain Light Rain
1:35 AM 35.6 °F 28.6 °F 32.0 °F 87% 29.89 in 6.0 mi North 9.2 mph - 0.02 in Rain Light Rain
1:51 AM 35.6 °F 29.2 °F 32.0 °F 87% 29.88 in 6.0 mi North 8.1 mph - 0.02 in Rain Light Rain
1:53 AM 36.0 °F 29.6 °F 32.0 °F 86% 29.91 in 6.0 mi North 8.1 mph - 0.02 in Rain Light Rain
2:24 AM 35.6 °F 29.2 °F 33.8 °F 93% 29.89 in 6.0 mi North 8.1 mph - 0.01 in Rain Light Rain
2:40 AM 35.6 °F 28.6 °F 33.8 °F 93% 29.90 in 6.0 mi North 9.2 mph - 0.01 in   Overcast
2:53 AM 36.0 °F 28.5 °F 32.0 °F 86% 29.92 in 5.0 mi North 10.4 mph - 0.02 in Rain Light Rain
3:31 AM 33.8 °F 27.7 °F 32.0 °F 93% 29.90 in 3.0 mi NNW 6.9 mph - 0.01 in Snow Light Snow
3:53 AM 35.1 °F 29.3 °F 32.0 °F 89% 29.93 in 4.0 mi North 6.9 mph - 0.02 in   Overcast
4:09 AM 35.6 °F 29.2 °F 32.0 °F 87% 29.90 in 5.0 mi North 8.1 mph - 0.00 in Snow Light Snow
4:16 AM 35.6 °F 29.2 °F 32.0 °F 87% 29.90 in 4.0 mi North 8.1 mph - 0.00 in Snow Light Snow
4:29 AM 35.6 °F 28.6 °F 32.0 °F 87% 29.90 in 5.0 mi North 9.2 mph - 0.00 in   Overcast
4:48 AM 35.6 °F 29.2 °F 32.0 °F 87% 29.90 in 5.0 mi North 8.1 mph - 0.01 in   Overcast
5:02 AM 35.6 °F 29.2 °F 32.0 °F 87% 29.91 in 5.0 mi North 8.1 mph - 0.00 in Rain Light Rain
5:14 AM 35.6 °F 29.9 °F 32.0 °F 87% 29.91 in 6.0 mi NNW 6.9 mph - 0.00 in   Overcast
5:40 AM 35.6 °F 29.9 °F 32.0 °F 87% 29.91 in 5.0 mi North 6.9 mph - 0.00 in   Overcast
5:53 AM 35.1 °F 29.3 °F 32.0 °F 89% 29.94 in 5.0 mi North 6.9 mph - 0.00 in   Overcast
6:06 AM 35.6 °F 30.7 °F 32.0 °F 87% 29.92 in 6.0 mi North 5.8 mph - N/A   Overcast
6:35 AM 35.6 °F 31.7 °F 32.0 °F 87% 29.93 in 6.0 mi NNW 4.6 mph - N/A   Overcast
6:53 AM 35.1 °F 31.0 °F 32.0 °F 89% 29.96 in 2.5 mi North 4.6 mph - N/A   Overcast
7:53 AM 35.1 °F 28.6 °F 32.0 °F 89% 29.98 in 2.5 mi North 8.1 mph - N/A   Overcast
8:00 AM 35.6 °F 29.2 °F 33.8 °F 93% 29.96 in 3.0 mi North 8.1 mph - N/A   Overcast
8:18 AM 35.6 °F 29.9 °F 33.8 °F 93% 29.96 in 3.0 mi North 6.9 mph - N/A   Overcast
8:25 AM 35.6 °F 29.2 °F 33.8 °F 93% 29.97 in 3.0 mi North 8.1 mph - N/A   Overcast
8:53 AM 36.0 °F 29.6 °F 33.1 °F 89% 29.99 in 3.0 mi North 8.1 mph - N/A   Overcast
9:00 AM 35.6 °F 29.2 °F 33.8 °F 93% 29.98 in 3.0 mi North 8.1 mph - N/A   Overcast
9:53 AM 37.0 °F 30.4 °F 34.0 °F 89% 30.02 in 3.0 mi North 9.2 mph - 0.00 in Rain Light Rain
10:00 AM 35.6 °F 28.0 °F 33.8 °F 93% 30.00 in 2.0 mi North 10.4 mph - 0.01 in Rain Light Rain
10:20 AM 37.4 °F 30.8 °F 33.8 °F 87% 30.01 in 4.0 mi North 9.2 mph - 0.01 in   Overcast
10:53 AM 37.0 °F 31.0 °F 34.0 °F 89% 30.04 in 3.0 mi North 8.1 mph - 0.02 in Rain Light Rain
11:12 AM 35.6 °F 28.0 °F 33.8 °F 93% 30.02 in 1.8 mi North 10.4 mph - 0.01 in Snow Light Snow
11:53 AM 37.0 °F 31.0 °F 33.1 °F 86% 30.03 in 5.0 mi North 8.1 mph - 0.02 in   Overcast
12:53 PM 37.9 °F 30.5 °F 34.0 °F 86% 30.04 in 9.0 mi North 11.5 mph - N/A   Overcast
1:53 PM 36.0 °F 30.3 °F 33.1 °F 89% 30.05 in 3.0 mi North 6.9 mph - 0.01 in Snow Light Snow
2:53 PM 37.0 °F 30.4 °F 33.1 °F 86% 30.07 in 10.0 mi NE 9.2 mph - 0.00 in   Overcast
3:33 PM 35.6 °F 29.2 °F 32.0 °F 87% 30.05 in 2.0 mi NE 8.1 mph - 0.01 in Snow Light Snow
3:46 PM 35.6 °F 29.9 °F 32.0 °F 87% 30.06 in 5.0 mi NNE 6.9 mph - 0.02 in   Overcast
3:53 PM 36.0 °F 30.3 °F 32.0 °F 86% 30.09 in 9.0 mi NNE 6.9 mph - 0.02 in   Overcast
4:53 PM 35.1 °F 27.9 °F 32.0 °F 89% 30.10 in 10.0 mi NNE 9.2 mph - 0.00 in   Mostly Cloudy
5:14 PM 35.6 °F 29.2 °F 32.0 °F 87% 30.08 in 10.0 mi NNE 8.1 mph - N/A   Overcast
5:53 PM 35.1 °F 29.3 °F 32.0 °F 89% 30.12 in 10.0 mi NNE 6.9 mph - N/A   Mostly Cloudy
6:36 PM 33.8 °F 28.6 °F 32.0 °F 93% 30.09 in 10.0 mi NNE 5.8 mph - N/A   Mostly Cloudy
6:49 PM 35.6 °F 31.7 °F 32.0 °F 87% 30.08 in 10.0 mi NNE 4.6 mph - N/A   Mostly Cloudy
6:53 PM 35.1 °F 30.1 °F 32.0 °F 89% 30.11 in 10.0 mi NNE 5.8 mph - N/A   Mostly Cloudy
7:11 PM 35.6 °F 28.6 °F 32.0 °F 87% 30.09 in 6.0 mi NE 9.2 mph - 0.00 in Snow Light Snow
7:53 PM 36.0 °F 32.1 °F 32.0 °F 86% 30.12 in 10.0 mi NE 4.6 mph - 0.00 in   Overcast
8:25 PM 37.4 °F 30.3 °F 32.0 °F 81% 30.09 in 5.0 mi East 10.4 mph - 0.00 in Rain Light Rain
8:53 PM 37.0 °F 30.4 °F 32.0 °F 82% 30.12 in 10.0 mi ENE 9.2 mph - 0.01 in Rain Light Rain
9:28 PM 37.4 °F 30.8 °F 30.2 °F 75% 30.11 in 10.0 mi ESE 9.2 mph - 0.00 in   Overcast
9:37 PM 37.4 °F 29.8 °F 30.2 °F 75% 30.10 in 10.0 mi ESE 11.5 mph - 0.00 in   Overcast
9:53 PM 37.9 °F 30.5 °F 30.0 °F 73% 30.13 in 10.0 mi ESE 11.5 mph - 0.00 in   Overcast
10:53 PM 37.9 °F 29.2 °F 30.0 °F 73% 30.13 in 10.0 mi ESE 15.0 mph - N/A   Overcast
11:53 PM 37.0 °F 28.9 °F 28.9 °F 73% 30.12 in 10.0 mi East 12.7 mph - N/A   Partly Cloudy